sat.trackr.live / text

‹ back to catalog

STARLINK-31559

NORAD 59358 · 2024-060L

PAYLOAD ACTIVE UNKNOWN

§ Identity

Operator
Country
US
Launch date
2024-03-31
Launch site
AFETR
Launch vehicle
Mass (kg)
RCS (m²)

Purposes: comms

External: N2YO · Heavens-Above · Gunter

§ Orbital elements

Epoch: 2026-09-20T08:10:03.443232Z

Period
94.27 min
Inclination
43.0033°
Eccentricity
0.0001421
Mean motion
15.27587332 rev/d
Perigee alt
482.1 km
Apogee alt
484.0 km
Semi-major
6,861.2 km
B*
-4.7974e-6
RAAN
240.4436°
Arg perigee
268.5208°
Mean anomaly
91.5481°
Rev number
13,983

§ Raw data

STARLINK-315591 59358U 24060L   26263.34031763 -.00000394  00000+0 -47974-5 0  99912 59358  43.0033 240.4436 0001421 268.5208  91.5481 15.27587332139832

JSON: /api/v1/satellites/59358 · /tle

For live sub-satellite position, see the globe view (requires WebGL).

§ Visibility from observer

Set your observer location to see the next 7 days of passes ≥ 10°. The values pass through the URL so the page stays shareable.

No JS? Fill the form by hand. The geolocation button needs JavaScript.